SCP
0 0 0 0 0 0 0 0 0 0 0 0 0 0 0 0 0 0 0 0 0 0 0 0 0 0 0 0 0 0 0 0 0 0 0 0 0 0 -0 -0 0 0 0
0 0 0 0 0 0 0 0 0 0 0 0 0 0 0 0 0 0 0 0 0 0 0 0 0 0 0 0 0 0 0 0 0 0 0 0 0 0 -0 -0 0 0 0
0 0 0 0 0 0 0 0 0 0 0 0 0 0 0 0 0 0 0 0 0 0 0 0 0 0 0 0 0 0 0 0 0 0 0 0 0 0 0 0 -0 -0 0
0 0 0 0 0 0 0 0 0 0 0 0 0 0 0 0 0 0 0 0 0 0 0 0 0 0 0 0 0 0 0 0 0 0 0 0 0 0 0 0 0 0 0
0 0 0 0 0 0 0 0 0 0 0 0 0 0 0 0 0 0 0 0 0 0 0 0 0 0 0 0 0 0 0 0 0 0 0 0 0 0 0 0 0 0 0
0 0 0 0 0 0 0 0 0 0 0 0 0 0 0 0 0 0 0 0 0 0 0 0 0 0 0 0 0 0 0 0 0 0 0 0 0 0 0 0 0 0 0
0 0 0 0 0 0 0 0 0 0 0 0 0 0 0 0 0 0 0 0 0 0 0 0 0 0 0 0 0 0 0 0 0 0 0 0 0 0 0 0 0 0 0
0 0 0 0 0 0 0 0 0 0 0 0 0 0 0 0 0 0 0 0 0 0 0 0 0 0 0 0 0 0 0 0 0 0 0 0 0 0 0 0 0 0 0
0 0 0 0 0 0 0 0 0 0 0 0 0 0 0 0 0 0 0 0 0 0 0 0 0 0 0 0 0 0 0 0 0 0 0 0 0 0 0 0 0 0 0
0 0 0 0 0 0 0 0 0 0 0 0 0 0 0 0 0 0 0 0 0 0 0 0 0 0 0 0 0 0 0 0 0 0 0 0 0 0 0 0 0 0 0
0 0 0 0 0 0 0 0 0 0 0 0 0 0 0 0 0 0 0 0 0 0 0 0 0 0 0 0 0 1 1 1 1 1 0 0 0 0 0 0 0 0 0
0 0 0 0 0 0 0 0 0 0 0 0 0 0 0 0 0 0 0 0 0 0 0 0 0 0 0 0 0 1 1 1 1 1 1 0 0 0 0 0 0 0 0
0 0 0 0 0 0 0 0 0 0 0 0 0 0 0 0 0 0 0 0 0 0 0 0 0 0 0 0 0 0 1 1 1 1 1 1 0 0 0 0 0 0 0
0 0 0 0 0 0 0 0 0 0 0 0 0 0 0 0 0 0 0 0 0 0 0 0 0 0 0 0 0 0 1 1 1 1 1 0 0 0 0 0 0 0 0
0 0 0 0 0 0 0 0 0 0 0 0 0 0 0 0 0 0 0 0 0 0 0 0 0 0 0 0 0 0 0 0 0 0 0 0 0 0 0 0 0 0 0
0 0 0 0 0 0 0 0 0 0 0 0 0 0 0 0 0 0 0 0 0 0 0 0 0 0 0 0 0 0 0 0 0 0 0 0 0 0 0 0 0 0 0
0 0 0 0 0 0 0 0 0 0 0 0 0 0 0 0 0 0 0 0 0 0 0 -0 0 0 0 0 0 0 0 0 0 0 0 0 0 0 0 0 0 0 0
0 0 0 0 0 0 0 0 0 0 0 0 0 0 0 0 0 0 0 0 0 0 0 -0 0 0 0 0 0 0 0 0 0 0 0 0 0 0 0 0 0 0 0
0 0 0 0 0 0 0 0 0 0 0 0 0 0 0 0 0 0 0 0 0 0 0 0 0 0 0 0 0 0 0 0 0 0 0 0 0 0 0 0 0 0 0
0 0 0 0 0 0 0 0 0 0 0 0 0 0 0 0 0 0 0 0 0 0 0 0 0 0 0 0 0 0 0 0 0 0 0 0 0 0 0 0 0 0 0
0 0 0 0 0 0 0 0 0 0 0 0 0 0 0 0 0 0 0 0 0 0 0 0 0 0 0 0 0 0 0 0 0 0 0 0 0 0 0 0 0 0 0
0 0 0 0 0 0 0 0 0 0 0 0 0 0 0 0 0 0 0 0 0 0 0 0 0 0 0 0 0 0 0 0 0 0 0 0 0 0 0 0 0 0 0
0 0 0 0 0 0 0 0 0 0 0 0 0 0 0 0 0 0 0 0 0 0 0 0 0 0 0 0 0 0 0 0 0 0 0 0 0 0 0 0 0 0 0
0 0 0 0 0 0 0 0 0 0 0 0 0 0 0 0 0 0 0 0 0 0 0 0 0 0 0 0 0 0 0 0 0 0 0 0 0 0 0 0 0 0 0
0 0 0 0 0 0 0 0 0 0 0 0 0 0 0 0 0 0 0 0 0 0 0 0 0 0 0 0 0 0 0 0 0 0 0 0 0 0 0 0 0 0 0
0 0 0 0 0 0 0 0 0 0 0 0 0 0 0 0 0 0 0 0 0 0 0 0 0 0 0 0 0 0 0 0 0 0 0 0 0 0 0 0 0 0 0
Wind_Speed
13 12 14 16 17 18 18 19 18 18 14 12 12 12 14 13 12 13 15 16 16 17 16 13 14 13 12 13 13 12 13 11 9 7 9 11 12 13 12 12 12 12 11
11 9 9 11 15 17 18 17 17 17 15 13 12 10 8 10 13 13 15 18 18 18 15 16 13 13 12 14 15 14 11 11 10 8 6 7 11 11 9 9 9 10 8
15 15 14 11 9 11 13 13 14 14 14 14 11 10 10 10 10 13 14 16 17 17 17 17 15 14 13 13 15 15 16 13 12 12 10 7 8 3 5 7 7 7 7
18 18 16 14 10 7 7 8 9 10 11 12 13 16 13 13 14 11 11 12 15 17 18 18 17 15 13 14 14 15 14 14 10 9 11 12 9 7 8 7 7 8 8
18 19 17 15 13 9 5 5 6 8 10 12 14 14 14 14 11 10 11 13 13 15 17 17 17 16 14 15 16 15 15 13 12 10 9 10 10 10 11 11 9 9 9
16 17 17 15 15 13 10 7 5 5 6 9 13 16 18 16 14 13 12 11 10 12 16 17 17 17 16 16 16 15 15 13 12 11 10 10 10 10 10 12 12 12 10
15 17 18 17 16 16 14 12 10 8 6 5 8 12 14 15 16 14 12 11 10 11 13 16 16 16 16 16 15 15 14 14 13 13 11 11 12 10 10 12 11 12 9
13 14 14 14 14 15 15 15 14 12 10 8 7 8 10 9 11 12 11 11 10 9 11 13 15 16 16 16 15 12 13 13 13 14 14 11 11 11 11 11 9 10 10
12 12 13 13 13 14 14 14 14 14 13 11 8 7 8 9 10 11 11 10 11 10 12 13 15 17 17 18 16 13 15 15 14 13 14 12 11 11 10 10 10 11 11
9 10 10 11 11 11 12 13 14 14 13 13 11 8 7 8 9 11 12 12 13 13 14 14 16 17 17 17 15 13 15 14 13 10 13 12 11 10 10 10 10 11 12
9 7 7 7 8 9 9 10 11 12 11 11 11 11 11 10 8 9 10 12 13 14 15 16 16 18 18 18 17 17 17 17 15 14 14 15 14 11 10 10 9 9 9
5 6 6 6 6 7 8 10 11 11 11 9 9 9 9 10 10 10 10 11 12 13 14 15 17 18 18 18 19 18 17 18 17 16 16 16 14 14 12 10 11 11 11
4 5 6 6 8 9 10 11 11 11 11 10 9 9 9 10 11 12 12 12 12 13 14 15 17 18 18 18 19 19 19 19 19 18 18 18 17 16 13 12 11 10 9
2 5 7 7 8 10 11 11 11 11 11 12 12 12 11 11 11 12 13 13 13 13 14 15 16 17 18 18 17 18 18 18 19 18 18 18 18 19 16 13 13 10 9
5 9 12 13 13 13 14 14 14 13 14 14 13 12 12 13 14 14 15 16 16 15 14 15 16 17 16 15 16 17 18 18 18 17 17 18 19 20 17 14 13 12 11
9 11 12 13 13 12 12 12 12 13 13 13 13 13 13 14 14 15 16 17 18 18 17 16 16 17 13 15 16 16 17 18 17 17 17 17 18 19 20 21 16 14 13
12 12 12 11 10 10 11 12 12 12 12 12 12 12 14 14 15 15 16 17 17 18 19 18 18 18 17 16 16 18 18 20 18 16 15 13 13 16 17 19 15 13 13
12 12 10 9 9 10 12 14 15 14 13 12 13 13 14 15 16 16 16 17 16 17 18 18 18 18 17 17 16 17 18 19 19 17 15 15 15 15 18 13 12 10 8
9 9 8 9 10 11 13 14 15 15 15 15 15 16 16 16 17 17 17 17 17 17 17 17 18 18 18 18 16 14 15 16 17 17 17 16 17 18 20 14 12 11 7
7 8 10 11 11 13 14 15 15 15 14 15 16 16 17 17 17 18 17 17 17 16 16 17 17 18 18 18 16 13 12 16 15 14 14 16 18 16 22 17 15 14 13
8 10 11 11 12 13 13 14 15 14 15 15 16 16 16 16 17 17 16 16 16 16 16 17 16 16 17 17 16 13 12 16 16 13 11 9 13 17 24 19 14 15 16
11 11 10 11 11 11 13 14 15 16 16 16 16 16 16 15 14 16 16 15 15 15 16 15 14 12 14 16 18 17 15 18 18 15 11 7 13 20 24 17 15 23 19
10 10 11 12 12 12 14 16 16 16 17 17 17 17 17 16 15 16 15 14 13 13 12 12 12 11 12 13 17 18 16 16 15 13 12 11 17 20 17 17 25 24 14
8 10 11 13 13 14 15 16 17 17 18 18 17 17 17 17 15 13 13 13 12 12 12 12 12 11 11 12 12 12 14 16 14 10 8 7 11 13 14 17 16 11 11
8 10 11 13 15 16 16 16 17 18 18 18 18 16 15 16 15 14 13 13 13 14 14 13 13 13 14 15 21 21 17 15 13 5 1 4 8 9 9 9 8 9 12
9 11 12 14 16 17 18 17 17 17 18 17 15 14 14 14 13 13 14 14 16 19 20 21 18 16 20 25 28 30 29 26 18 6 5 6 8 11 11 11 10 9 10
Wind_Direction
291 279 266 257 248 241 236 232 226 221 213 207 206 211 224 227 227 228 230 228 225 222 220 224 227 225 227 230 230 231 236 236 237 251 260 262 259 256 253 251 251 252 249
332 326 317 289 264 249 237 232 230 224 215 212 209 215 227 229 227 227 227 226 226 224 220 222 224 223 225 231 232 233 236 240 232 230 248 269 267 250 249 250 248 248 244
3 356 346 334 296 269 258 245 240 234 225 218 215 220 228 231 232 227 226 226 228 228 226 226 226 225 224 228 227 227 227 230 226 221 225 231 246 259 223 225 231 234 234
28 19 10 7 358 327 291 266 257 251 242 229 224 223 224 232 235 235 234 228 225 226 225 226 226 225 222 226 226 224 223 226 226 216 224 239 267 261 266 242 239 249 246
32 23 20 19 20 14 350 305 272 252 240 230 227 231 237 246 250 243 238 232 225 223 225 224 224 224 224 226 226 222 220 220 216 214 210 220 231 237 252 258 250 246 248
28 24 23 25 25 22 19 13 348 310 276 247 235 231 236 242 244 240 237 234 226 220 221 220 220 222 223 226 227 225 222 218 214 217 216 215 218 214 219 239 251 253 248
26 22 21 19 21 20 18 16 12 6 349 296 265 256 255 255 254 252 247 241 231 224 221 219 220 222 224 226 227 225 221 215 211 215 219 223 229 223 213 227 241 251 253
26 26 27 23 23 21 21 19 19 15 5 343 310 282 270 268 271 274 273 268 262 252 241 231 233 234 231 230 228 226 223 219 217 217 217 220 226 227 220 218 224 243 251
23 27 29 31 29 27 27 28 29 27 19 7 346 320 295 278 273 272 268 265 264 263 257 244 235 234 232 231 228 223 225 221 222 220 220 220 222 224 223 219 214 225 245
35 31 29 30 30 33 34 35 32 28 21 13 8 350 326 300 285 280 276 272 269 266 261 253 248 243 240 237 237 236 234 229 223 218 223 224 224 223 219 216 217 220 233
46 45 41 38 44 42 34 28 22 19 16 14 8 3 353 341 322 301 292 284 279 274 267 263 257 251 245 238 231 233 234 232 228 220 220 224 221 221 217 215 214 217 218
61 56 48 41 37 27 15 6 2 4 5 4 2 4 0 353 348 338 325 311 298 289 281 274 267 262 255 247 239 235 234 235 231 223 219 221 218 222 220 217 217 216 212
68 39 26 10 3 356 352 350 353 350 347 345 344 344 347 345 343 340 334 324 313 302 291 280 271 266 262 256 249 242 236 233 231 228 223 222 216 217 216 217 220 218 211
25 355 352 346 342 341 346 344 341 341 340 334 328 326 328 324 320 321 322 320 317 311 305 294 284 275 269 262 254 248 241 239 236 231 228 225 219 219 211 212 217 211 205
345 344 341 337 337 345 348 344 341 343 340 331 325 326 326 322 319 317 314 312 310 307 305 300 292 283 272 260 254 252 249 243 241 239 234 229 224 222 211 203 209 206 204
340 334 329 325 328 338 338 336 338 337 335 330 328 330 328 323 320 318 314 310 307 305 302 298 295 290 279 261 245 243 251 249 240 239 237 233 227 221 210 206 207 208 203
336 326 318 317 324 330 337 336 334 334 334 329 329 329 325 321 320 318 316 314 310 306 302 300 301 299 292 277 253 233 242 250 245 235 234 235 228 223 218 214 210 212 216
322 319 323 325 329 337 338 335 332 332 330 328 328 328 325 321 320 318 317 315 311 309 305 303 305 303 296 287 266 246 248 253 253 247 235 230 230 220 215 201 191 191 183
330 345 355 343 335 338 339 332 329 332 330 331 329 327 325 322 322 322 320 317 312 308 306 305 304 302 300 299 284 266 269 263 259 252 240 228 231 218 202 189 164 143 128
4 354 348 340 333 336 337 329 328 326 326 326 323 323 322 321 321 320 319 317 315 312 309 305 304 303 304 305 298 290 288 280 272 258 247 234 232 207 188 182 164 160 153
341 342 335 329 331 332 332 325 324 324 328 323 321 321 320 321 320 318 317 316 314 312 310 310 312 313 313 312 309 307 306 292 282 272 259 242 224 197 186 186 178 159 140
335 333 327 325 326 330 329 326 325 328 325 321 319 317 316 314 313 313 313 314 315 313 314 316 316 318 321 315 312 307 300 296 286 280 269 231 198 189 185 180 155 139 133
324 329 330 329 332 337 335 328 328 328 324 320 319 319 317 314 314 313 311 310 312 313 316 317 314 317 320 312 306 305 305 304 290 277 264 209 189 182 172 161 147 137 132
333 333 330 329 331 334 329 326 326 324 322 319 318 317 315 313 311 310 308 308 312 314 314 315 311 310 308 307 309 310 309 303 293 284 265 202 166 148 143 143 139 130 134
329 328 325 323 322 323 320 322 323 322 319 316 314 313 311 308 307 305 305 304 306 307 304 304 305 303 298 298 303 300 294 289 283 259 206 153 137 132 140 137 135 135 135
322 319 318 318 317 317 315 317 317 315 313 310 308 308 307 303 303 305 303 296 292 294 293 289 287 290 291 297 304 302 299 292 267 209 185 179 167 159 159 156 147 149 143